EZY7TY EGPH-EGAA

Flight info

Callsign EZY7TY
Flight time 0h 32m
Altitude 20000
Route GOSAM P600 BLACA DCT BELZU
Aircraft A319/M-SDE3FGHIRWY/LB1

Departure

Time 2026-04-24 15:23
Airport Edinburgh Airport (EGPH)

Arrival

Time 2026-04-24 15:56
Airport Belfast International Airport (EGAA)
Time Latitude Longitude Altitude Speed Heading
2026-04-24 14:54 55.94767 -3.35557 107 ft 0 kts 208°
2026-04-24 14:58 55.94768 -3.35557 107 ft 0 kts 208°
2026-04-24 15:10 55.94781 -3.35544 107 ft 2 kts 209°
2026-04-24 15:10 55.94796 -3.35530 105 ft 2 kts 209°
2026-04-24 15:10 55.94810 -3.35514 106 ft 2 kts 229°
2026-04-24 15:10 55.94817 -3.35489 106 ft 2 kts 283°
2026-04-24 15:11 55.94811 -3.35462 105 ft 2 kts 300°
2026-04-24 15:11 55.94808 -3.35454 105 ft 0 kts 299°
2026-04-24 15:14 55.94816 -3.35478 107 ft 5 kts 299°
2026-04-24 15:14 55.94843 -3.35566 107 ft 11 kts 299°
2026-04-24 15:15 55.94881 -3.35693 107 ft 13 kts 298°
2026-04-24 15:15 55.94914 -3.35801 107 ft 8 kts 298°
2026-04-24 15:15 55.94948 -3.35860 107 ft 8 kts 333°
2026-04-24 15:15 55.95016 -3.35838 107 ft 13 kts 13°
2026-04-24 15:16 55.95082 -3.35956 107 ft 14 kts 297°
2026-04-24 15:16 55.95118 -3.36128 106 ft 14 kts 288°
2026-04-24 15:16 55.95136 -3.36273 107 ft 12 kts 257°
2026-04-24 15:16 55.95097 -3.36390 107 ft 10 kts 238°
2026-04-24 15:17 55.95062 -3.36494 107 ft 9 kts 239°
2026-04-24 15:17 55.95030 -3.36590 106 ft 10 kts 239°
2026-04-24 15:17 55.94985 -3.36725 107 ft 16 kts 239°
2026-04-24 15:17 55.94918 -3.36922 107 ft 21 kts 239°
2026-04-24 15:18 55.94838 -3.37155 107 ft 23 kts 239°
2026-04-24 15:18 55.94751 -3.37414 107 ft 26 kts 239°
2026-04-24 15:18 55.94671 -3.37649 107 ft 23 kts 239°
2026-04-24 15:18 55.94585 -3.37905 106 ft 26 kts 238°
2026-04-24 15:19 55.94496 -3.38167 106 ft 22 kts 238°
2026-04-24 15:19 55.94413 -3.38410 106 ft 21 kts 239°
2026-04-24 15:19 55.94340 -3.38625 107 ft 17 kts 239°
2026-04-24 15:19 55.94284 -3.38794 107 ft 13 kts 245°
2026-04-24 15:20 55.94318 -3.38898 107 ft 3 kts 328°
2026-04-24 15:20 55.94320 -3.38901 107 ft 0 kts 328°
2026-04-24 15:21 55.94321 -3.38902 107 ft 2 kts 328°
2026-04-24 15:21 55.94360 -3.38944 107 ft 11 kts 328°
2026-04-24 15:22 55.94418 -3.38965 108 ft 7 kts 63°
2026-04-24 15:22 55.94445 -3.38886 109 ft 12 kts 59°
2026-04-24 15:22 55.94597 -3.38436 105 ft 80 kts 58°
2026-04-24 15:23 55.95369 -3.36174 264 ft 159 kts 58°
2026-04-24 15:23 55.96888 -3.32927 1413 ft 186 kts 39°
2026-04-24 15:23 55.97928 -3.31316 1822 ft 211 kts 41°
2026-04-24 15:24 56.02317 -3.28447 3649 ft 259 kts 331°
2026-04-24 15:25 56.03935 -3.33835 5542 ft 265 kts 265°
2026-04-24 15:25 56.02895 -3.40177 7527 ft 271 kts 250°
2026-04-24 15:26 56.00971 -3.49917 10243 ft 282 kts 255°
2026-04-24 15:27 55.99297 -3.61049 11770 ft 328 kts 257°
2026-04-24 15:27 55.95723 -3.71415 14089 ft 346 kts 221°
2026-04-24 15:28 55.88232 -3.82709 16838 ft 359 kts 221°
2026-04-24 15:29 55.84375 -3.88509 18170 ft 366 kts 220°
2026-04-24 15:30 55.78451 -3.97412 19944 ft 377 kts 220°
2026-04-24 15:31 55.70524 -4.09280 20280 ft 366 kts 220°
2026-04-24 15:32 55.62733 -4.20864 20288 ft 365 kts 220°
2026-04-24 15:33 55.54945 -4.32393 20296 ft 365 kts 220°
2026-04-24 15:33 55.49089 -4.41028 20296 ft 366 kts 220°
2026-04-24 15:34 55.45178 -4.46773 20295 ft 366 kts 220°
2026-04-24 15:35 55.39296 -4.55379 20293 ft 367 kts 219°
2026-04-24 15:35 55.35366 -4.61102 20296 ft 367 kts 219°
2026-04-24 15:35 55.33425 -4.63925 20297 ft 367 kts 219°
2026-04-24 15:36 55.31461 -4.66782 20300 ft 367 kts 219°
2026-04-24 15:36 55.27529 -4.72488 20297 ft 367 kts 219°
2026-04-24 15:36 55.25563 -4.75332 20299 ft 367 kts 219°
2026-04-24 15:37 55.23592 -4.78182 20301 ft 367 kts 219°
2026-04-24 15:37 55.21623 -4.81027 20301 ft 367 kts 219°
2026-04-24 15:37 55.19654 -4.83869 20299 ft 367 kts 219°
2026-04-24 15:37 55.17686 -4.86706 20300 ft 367 kts 219°
2026-04-24 15:38 55.15711 -4.89542 20299 ft 367 kts 219°
2026-04-24 15:38 55.13733 -4.92377 20298 ft 367 kts 219°
2026-04-24 15:38 55.11773 -4.95149 20300 ft 367 kts 216°
2026-04-24 15:38 55.09597 -4.97470 20299 ft 366 kts 206°
2026-04-24 15:39 55.07312 -4.99460 20296 ft 367 kts 206°
2026-04-24 15:39 55.05037 -5.01439 20177 ft 362 kts 206°
2026-04-24 15:39 55.02808 -5.03380 19932 ft 354 kts 206°
2026-04-24 15:39 55.00624 -5.05275 19689 ft 349 kts 206°
2026-04-24 15:40 54.98454 -5.07152 19448 ft 346 kts 206°
2026-04-24 15:40 54.96297 -5.09013 19208 ft 345 kts 206°
2026-04-24 15:40 54.94153 -5.10863 18973 ft 344 kts 206°
2026-04-24 15:40 54.92025 -5.12744 18734 ft 342 kts 210°
2026-04-24 15:41 54.90156 -5.15286 18482 ft 342 kts 227°
2026-04-24 15:41 54.88855 -5.18716 18217 ft 342 kts 247°
2026-04-24 15:41 54.88129 -5.22639 17960 ft 341 kts 253°
2026-04-24 15:41 54.87481 -5.26592 17685 ft 340 kts 254°
2026-04-24 15:42 54.86841 -5.30538 17414 ft 339 kts 254°
2026-04-24 15:42 54.86204 -5.34469 17163 ft 337 kts 253°
2026-04-24 15:42 54.85569 -5.38382 16901 ft 336 kts 253°
2026-04-24 15:42 54.84935 -5.42275 16646 ft 335 kts 253°
2026-04-24 15:43 54.84303 -5.46149 16390 ft 333 kts 253°
2026-04-24 15:43 54.83670 -5.50006 16138 ft 332 kts 253°
2026-04-24 15:43 54.83036 -5.53852 15886 ft 331 kts 253°
2026-04-24 15:43 54.82399 -5.57678 15636 ft 329 kts 253°
2026-04-24 15:44 54.81763 -5.61481 15390 ft 328 kts 253°
2026-04-24 15:44 54.81130 -5.65267 15174 ft 327 kts 253°
2026-04-24 15:44 54.80493 -5.69087 14654 ft 331 kts 253°
2026-04-24 15:44 54.79853 -5.72936 14150 ft 334 kts 253°
2026-04-24 15:45 54.79208 -5.76806 13597 ft 335 kts 253°
2026-04-24 15:45 54.78557 -5.80691 13041 ft 336 kts 253°
2026-04-24 15:46 54.76647 -5.92010 11490 ft 336 kts 252°
2026-04-24 15:46 54.75986 -5.95906 10974 ft 335 kts 252°
2026-04-24 15:46 54.75329 -5.99773 10464 ft 334 kts 252°
2026-04-24 15:46 54.74678 -6.03592 9905 ft 325 kts 252°
2026-04-24 15:47 54.74053 -6.07269 9360 ft 312 kts 252°
2026-04-24 15:47 54.73451 -6.10809 8894 ft 299 kts 252°
2026-04-24 15:47 54.72878 -6.14192 8546 ft 289 kts 251°
2026-04-24 15:47 54.72310 -6.17513 8194 ft 287 kts 251°
2026-04-24 15:48 54.71744 -6.20807 7834 ft 285 kts 250°
2026-04-24 15:48 54.71179 -6.24078 7498 ft 283 kts 251°
2026-04-24 15:48 54.70618 -6.27316 7151 ft 279 kts 251°
2026-04-24 15:48 54.70065 -6.30514 6802 ft 276 kts 251°
2026-04-24 15:49 54.69522 -6.33668 6456 ft 269 kts 251°
2026-04-24 15:49 54.68990 -6.36740 6104 ft 265 kts 251°
2026-04-24 15:49 54.68461 -6.39781 5748 ft 262 kts 250°
2026-04-24 15:49 54.67940 -6.42777 5394 ft 259 kts 251°
2026-04-24 15:50 54.67426 -6.45737 5053 ft 256 kts 250°
2026-04-24 15:50 54.66916 -6.48666 4683 ft 253 kts 250°
2026-04-24 15:50 54.66282 -6.51456 4335 ft 246 kts 232°
2026-04-24 15:50 54.65037 -6.53261 4117 ft 234 kts 200°
2026-04-24 15:51 54.63463 -6.53652 4013 ft 231 kts 171°
2026-04-24 15:51 54.61970 -6.52718 4006 ft 231 kts 155°
2026-04-24 15:51 54.60511 -6.51535 4010 ft 233 kts 155°
2026-04-24 15:51 54.59135 -6.50049 3647 ft 236 kts 131°
2026-04-24 15:52 54.58526 -6.47502 3273 ft 232 kts 92°
2026-04-24 15:52 54.58886 -6.44862 2970 ft 224 kts 67°
2026-04-24 15:52 54.59708 -6.42682 2631 ft 211 kts 53°
2026-04-24 15:52 54.60570 -6.40796 2452 ft 187 kts 62°
2026-04-24 15:53 54.61132 -6.38904 2230 ft 172 kts 69°
2026-04-24 15:53 54.61624 -6.37056 1940 ft 166 kts 70°
2026-04-24 15:53 54.62089 -6.35303 1710 ft 153 kts 70°
2026-04-24 15:53 54.62525 -6.33662 1497 ft 148 kts 68°
2026-04-24 15:54 54.62961 -6.32076 1341 ft 144 kts 66°
2026-04-24 15:54 54.63392 -6.30525 1167 ft 143 kts 70°
2026-04-24 15:54 54.63780 -6.28969 1055 ft 140 kts 70°
2026-04-24 15:54 54.64194 -6.27403 806 ft 142 kts 68°
2026-04-24 15:55 54.64609 -6.25867 622 ft 140 kts 66°
2026-04-24 15:55 54.65016 -6.24327 407 ft 143 kts 69°
2026-04-24 15:55 54.65424 -6.22800 276 ft 135 kts 69°
2026-04-24 15:55 54.65759 -6.21544 274 ft 74 kts 64°
2026-04-24 15:56 54.65846 -6.21317 272 ft 6 kts 350°
2026-04-24 15:56 54.65905 -6.21354 272 ft 9 kts 336°
2026-04-24 15:56 54.65928 -6.21373 275 ft 0 kts 335°
2026-04-24 15:57 54.65933 -6.21377 274 ft 4 kts 335°
2026-04-24 15:57 54.65988 -6.21370 275 ft 6 kts 39°
2026-04-24 15:58 54.66014 -6.21280 272 ft 11 kts 65°
2026-04-24 15:58 54.66069 -6.21217 272 ft 9 kts 344°
2026-04-24 15:58 54.66118 -6.21258 274 ft 6 kts 324°
2026-04-24 15:58 54.66121 -6.21312 272 ft 4 kts 253°
2026-04-24 15:59 54.66112 -6.21342 272 ft 2 kts 244°
2026-04-24 15:59 54.66109 -6.21356 275 ft 0 kts 244°